owner,sensor,date,latitude,longitude,vertical_datum,wind_speed,wind_to_direction,wind_speed_of_gust,qcFlag 
ADCP,ioos:station:wmo:42361:1,2008-03-27T20:00:00Z,27.5500,-92.4900,122.0,8.0,160.0,99.0,'11111222,11111222,11144222' 
ADCP,ioos:station:wmo:42361:1,2008-03-27T21:00:00Z,27.5500,-92.4900,122.0,8.0,150.0,99.0,'11111222,11111222,11144222' 
ADCP,ioos:station:wmo:42361:1,2008-03-27T22:00:00Z,27.5500,-92.4900,122.0,9.0,140.0,99.0,'11111222,11111222,11144222' 
ADCP,ioos:station:wmo:42361:1,2008-03-27T23:00:00Z,27.5500,-92.4900,122.0,10.0,140.0,99.0,'11111222,11111222,11144222' 
ADCP,ioos:station:wmo:42361:1,2008-03-28T00:00:00Z,27.5500,-92.4900,122.0,12.0,140.0,99.0,'11111222,11111222,11144222' 
ADCP,ioos:station:wmo:42361:1,2008-03-28T01:00:00Z,27.5500,-92.4900,122.0,11.0,140.0,99.0,'11111222,11111222,11144222' 
ADCP,ioos:station:wmo:42361:1,2008-03-28T02:00:00Z,27.5500,-92.4900,122.0,12.0,140.0,99.0,'11111222,11111222,11144222' 
ADCP,ioos:station:wmo:42361:1,2008-03-28T03:00:00Z,27.5500,-92.4900,122.0,12.0,140.0,99.0,'11111222,11111222,11144222' 
ADCP,ioos:station:wmo:42361:1,2008-03-28T04:00:00Z,27.5500,-92.4900,122.0,12.0,140.0,99.0,'11111222,11111222,11144222' 
ADCP,ioos:station:wmo:42361:1,2008-03-28T05:00:00Z,27.5500,-92.4900,122.0,12.0,140.0,99.0,'11111222,11111222,11144222' 
ADCP,ioos:station:wmo:42361:1,2008-03-28T06:00:00Z,27.5500,-92.4900,122.0,12.0,150.0,99.0,'11111222,11111222,11144222' 
ADCP,ioos:station:wmo:42361:1,2008-03-28T07:00:00Z,27.5500,-92.4900,122.0,11.0,150.0,99.0,'11111222,11111222,11144222' 
ADCP,ioos:station:wmo:42361:1,2008-03-28T08:00:00Z,27.5500,-92.4900,122.0,11.0,150.0,99.0,'11111222,11111222,11144222' 
ADCP,ioos:station:wmo:42361:1,2008-03-28T09:00:00Z,27.5500,-92.4900,122.0,10.0,160.0,99.0,'11111222,11111222,11144222' 
ADCP,ioos:station:wmo:42361:1,2008-03-28T10:00:00Z,27.5500,-92.4900,122.0,10.0,150.0,99.0,'11111222,11111222,11144222' 
ADCP,ioos:station:wmo:42361:1,2008-03-28T11:00:00Z,27.5500,-92.4900,122.0,10.0,150.0,99.0,'11111222,11111222,11144222' 
ADCP,ioos:station:wmo:42361:1,2008-03-28T12:00:00Z,27.5500,-92.4900,122.0,8.0,140.0,99.0,'11111222,11111222,11144222' 
ADCP,ioos:station:wmo:42361:1,2008-03-28T13:00:00Z,27.5500,-92.4900,122.0,8.0,130.0,99.0,'11111222,11111222,11144222' 
ADCP,ioos:station:wmo:42361:1,2008-03-28T14:00:00Z,27.5500,-92.4900,122.0,7.0,140.0,99.0,'11111222,11111222,11144222' 
ADCP,ioos:station:wmo:42361:1,2008-03-28T15:00:00Z,27.5500,-92.4900,122.0,9.0,130.0,99.0,'11111222,11111222,11144222' 
ADCP,ioos:station:wmo:42361:1,2008-03-28T16:00:00Z,27.5500,-92.4900,122.0,8.0,130.0,99.0,'11111222,11111222,11144222' 
ADCP,ioos:station:wmo:42361:1,2008-03-28T17:00:00Z,27.5500,-92.4900,122.0,7.0,130.0,99.0,'11111222,11111222,11144222' 
ADCP,ioos:station:wmo:42361:1,2008-03-28T18:00:00Z,27.5500,-92.4900,122.0,6.0,120.0,99.0,'11111222,11111222,11144222' 
ADCP,ioos:station:wmo:42361:1,2008-03-28T19:00:00Z,27.5500,-92.4900,122.0,6.0,110.0,99.0,'11111222,11111222,11144222' 
ADCP,ioos:station:wmo:42361:1,2008-03-28T20:00:00Z,27.5500,-92.4900,122.0,7.0,110.0,99.0,'11111222,11111222,11144222' 
ADCP,ioos:station:wmo:42361:1,2008-03-28T21:00:00Z,27.5500,-92.4900,122.0,7.0,100.0,99.0,'11111222,11111222,11144222' 
ADCP,ioos:station:wmo:42361:1,2008-03-28T22:00:00Z,27.5500,-92.4900,122.0,8.0,100.0,99.0,'11111222,11111222,11144222' 
ADCP,ioos:station:wmo:42361:1,2008-03-28T23:00:00Z,27.5500,-92.4900,122.0,7.0,100.0,99.0,'11111222,11111222,11144222' 
ADCP,ioos:station:wmo:42361:1,2008-03-29T00:00:00Z,27.5500,-92.4900,122.0,8.0,100.0,99.0,'11111222,11111222,11144222' 
ADCP,ioos:station:wmo:42361:1,2008-03-29T01:00:00Z,27.5500,-92.4900,122.0,8.0,110.0,99.0,'11111222,11111222,11144222' 
ADCP,ioos:station:wmo:42361:1,2008-03-29T02:00:00Z,27.5500,-92.4900,122.0,8.0,120.0,99.0,'11111222,11111222,11144222' 
ADCP,ioos:station:wmo:42361:1,2008-03-29T03:00:00Z,27.5500,-92.4900,122.0,7.0,120.0,99.0,'11111222,11111222,11144222' 
ADCP,ioos:station:wmo:42361:1,2008-03-29T04:00:00Z,27.5500,-92.4900,122.0,7.0,120.0,99.0,'11111222,11111222,11144222' 
ADCP,ioos:station:wmo:42361:1,2008-03-29T05:00:00Z,27.5500,-92.4900,122.0,6.0,120.0,99.0,'11111222,11111222,11144222' 
ADCP,ioos:station:wmo:42361:1,2008-03-29T06:00:00Z,27.5500,-92.4900,122.0,6.0,120.0,99.0,'11111222,11111222,11144222' 
ADCP,ioos:station:wmo:42361:1,2008-03-29T07:15:00Z,27.5500,-92.4900,122.0,5.0,120.0,99.0,'11111222,11111222,11144222' 
ADCP,ioos:station:wmo:42361:1,2008-03-29T08:00:00Z,27.5500,-92.4900,122.0,6.0,120.0,99.0,'11111222,11111222,11144222' 
ADCP,ioos:station:wmo:42361:1,2008-03-29T09:00:00Z,27.5500,-92.4900,122.0,8.0,110.0,99.0,'11111222,11111222,11144222' 
ADCP,ioos:station:wmo:42361:1,2008-03-29T10:00:00Z,27.5500,-92.4900,122.0,9.0,120.0,99.0,'11111222,11111222,11144222' 
ADCP,ioos:station:wmo:42361:1,2008-03-29T11:00:00Z,27.5500,-92.4900,122.0,9.0,110.0,99.0,'11111222,11111222,11144222' 
ADCP,ioos:station:wmo:42361:1,2008-03-29T12:00:00Z,27.5500,-92.4900,122.0,8.0,110.0,99.0,'11111222,11111222,11144222' 
ADCP,ioos:station:wmo:42361:1,2008-03-29T13:00:00Z,27.5500,-92.4900,122.0,8.0,110.0,99.0,'11111222,11111222,11144222' 
ADCP,ioos:station:wmo:42361:1,2008-03-29T14:00:00Z,27.5500,-92.4900,122.0,8.0,110.0,99.0,'11111222,11111222,11144222' 
ADCP,ioos:station:wmo:42361:1,2008-03-29T15:00:00Z,27.5500,-92.4900,122.0,7.0,110.0,99.0,'11111222,11111222,11144222' 
ADCP,ioos:station:wmo:42361:1,2008-03-29T16:00:00Z,27.5500,-92.4900,122.0,10.0,130.0,99.0,'11111222,11111222,11144222' 
ADCP,ioos:station:wmo:42361:1,2008-03-29T17:00:00Z,27.5500,-92.4900,122.0,10.0,120.0,99.0,'11111222,11111222,11144222' 
ADCP,ioos:station:wmo:42361:1,2008-03-29T18:00:00Z,27.5500,-92.4900,122.0,11.0,120.0,99.0,'11111222,11111222,11144222' 
ADCP,ioos:station:wmo:42361:1,2008-03-29T19:00:00Z,27.5500,-92.4900,122.0,11.0,120.0,99.0,'11111222,11111222,11144222' 
ADCP,ioos:station:wmo:42361:1,2008-03-29T20:00:00Z,27.5500,-92.4900,122.0,11.0,120.0,99.0,'11111222,11111222,11144222' 
ADCP,ioos:station:wmo:42361:1,2008-03-29T21:00:00Z,27.5500,-92.4900,122.0,10.0,120.0,99.0,'11111222,11111222,11144222' 
ADCP,ioos:station:wmo:42361:1,2008-03-29T22:00:00Z,27.5500,-92.4900,122.0,10.0,130.0,99.0,'11111222,11111222,11144222' 
ADCP,ioos:station:wmo:42361:1,2008-03-29T23:00:00Z,27.5500,-92.4900,122.0,10.0,120.0,99.0,'11111222,11111222,11144222' 
ADCP,ioos:station:wmo:42361:1,2008-03-30T00:00:00Z,27.5500,-92.4900,122.0,10.0,120.0,99.0,'11111222,11111222,11144222' 
ADCP,ioos:station:wmo:42361:1,2008-03-30T01:00:00Z,27.5500,-92.4900,122.0,9.0,100.0,99.0,'11111222,11111222,11144222' 
ADCP,ioos:station:wmo:42361:1,2008-03-30T02:00:00Z,27.5500,-92.4900,122.0,11.0,110.0,99.0,'11111222,11111222,11144222' 
ADCP,ioos:station:wmo:42361:1,2008-03-30T03:00:00Z,27.5500,-92.4900,122.0,12.0,120.0,99.0,'11111222,11111222,11144222' 
ADCP,ioos:station:wmo:42361:1,2008-03-30T04:00:00Z,27.5500,-92.4900,122.0,10.0,110.0,99.0,'11111222,11111222,11144222' 
ADCP,ioos:station:wmo:42361:1,2008-03-30T05:00:00Z,27.5500,-92.4900,122.0,11.0,100.0,99.0,'11111222,11111222,11144222' 
ADCP,ioos:station:wmo:42361:1,2008-03-30T06:15:00Z,27.5500,-92.4900,122.0,11.0,110.0,99.0,'11111222,11111222,11144222' 
ADCP,ioos:station:wmo:42361:1,2008-03-30T07:00:00Z,27.5500,-92.4900,122.0,12.0,110.0,99.0,'11111222,11111222,11144222' 
ADCP,ioos:station:wmo:42361:1,2008-03-30T08:00:00Z,27.5500,-92.4900,122.0,10.0,110.0,99.0,'11111222,11111222,11144222' 
ADCP,ioos:station:wmo:42361:1,2008-03-30T09:00:00Z,27.5500,-92.4900,122.0,8.0,110.0,99.0,'11111222,11111222,11144222' 
ADCP,ioos:station:wmo:42361:1,2008-03-30T10:15:00Z,27.5500,-92.4900,122.0,9.0,130.0,99.0,'11111222,11111222,11144222' 
ADCP,ioos:station:wmo:42361:1,2008-03-30T11:15:00Z,27.5500,-92.4900,122.0,13.0,120.0,99.0,'11111222,11111222,11144222' 
ADCP,ioos:station:wmo:42361:1,2008-03-30T12:00:00Z,27.5500,-92.4900,122.0,9.0,120.0,99.0,'11111222,11111222,11144222' 
ADCP,ioos:station:wmo:42361:1,2008-03-30T13:00:00Z,27.5500,-92.4900,122.0,12.0,90.0,99.0,'11111222,11111222,11144222' 
ADCP,ioos:station:wmo:42361:1,2008-03-30T14:00:00Z,27.5500,-92.4900,122.0,10.0,100.0,99.0,'11111222,11111222,11144222' 
ADCP,ioos:station:wmo:42361:1,2008-03-30T15:00:00Z,27.5500,-92.4900,122.0,11.0,100.0,99.0,'11111222,11111222,11144222' 
ADCP,ioos:station:wmo:42361:1,2008-03-30T16:00:00Z,27.5500,-92.4900,122.0,11.0,110.0,99.0,'11111222,11111222,11144222' 
ADCP,ioos:station:wmo:42361:1,2008-03-30T17:00:00Z,27.5500,-92.4900,122.0,13.0,110.0,99.0,'11111222,11111222,11144222' 
ADCP,ioos:station:wmo:42361:1,2008-03-30T18:15:00Z,27.5500,-92.4900,122.0,10.0,120.0,99.0,'11111222,11111222,11144222' 
ADCP,ioos:station:wmo:42361:1,2008-03-30T19:00:00Z,27.5500,-92.4900,122.0,9.0,130.0,99.0,'11111222,11111222,11144222' 
ADCP,ioos:station:wmo:42361:1,2008-03-30T20:00:00Z,27.5500,-92.4900,122.0,9.0,120.0,99.0,'11111222,11111222,11144222' 
ADCP,ioos:station:wmo:42361:1,2008-03-30T21:00:00Z,27.5500,-92.4900,122.0,7.0,110.0,99.0,'11111222,11111222,11144222' 
ADCP,ioos:station:wmo:42361:1,2008-03-30T22:00:00Z,27.5500,-92.4900,122.0,11.0,110.0,99.0,'11111222,11111222,11144222' 
ADCP,ioos:station:wmo:42361:1,2008-03-30T23:00:00Z,27.5500,-92.4900,122.0,11.0,120.0,99.0,'11111222,11111222,11144222' 
ADCP,ioos:station:wmo:42361:1,2008-03-31T00:00:00Z,27.5500,-92.4900,122.0,12.0,120.0,99.0,'11111222,11111222,11144222' 
ADCP,ioos:station:wmo:42361:1,2008-03-31T01:00:00Z,27.5500,-92.4900,122.0,10.0,120.0,99.0,'11111222,11111222,11144222' 
ADCP,ioos:station:wmo:42361:1,2008-03-31T02:00:00Z,27.5500,-92.4900,122.0,11.0,110.0,99.0,'11111222,11111222,11144222' 
ADCP,ioos:station:wmo:42361:1,2008-03-31T03:00:00Z,27.5500,-92.4900,122.0,11.0,110.0,99.0,'11111222,11111222,11144222' 
ADCP,ioos:station:wmo:42361:1,2008-03-31T04:00:00Z,27.5500,-92.4900,122.0,11.0,110.0,99.0,'11111222,11111222,11144222' 
ADCP,ioos:station:wmo:42361:1,2008-03-31T05:00:00Z,27.5500,-92.4900,122.0,12.0,110.0,99.0,'11111222,11111222,11144222' 
ADCP,ioos:station:wmo:42361:1,2008-03-31T06:00:00Z,27.5500,-92.4900,122.0,13.0,110.0,99.0,'11111222,11111222,11144222' 
ADCP,ioos:station:wmo:42361:1,2008-03-31T07:00:00Z,27.5500,-92.4900,122.0,12.0,110.0,99.0,'11111222,11111222,11144222' 
ADCP,ioos:station:wmo:42361:1,2008-03-31T08:00:00Z,27.5500,-92.4900,122.0,11.0,110.0,99.0,'11111222,11111222,11144222' 
ADCP,ioos:station:wmo:42361:1,2008-03-31T09:00:00Z,27.5500,-92.4900,122.0,11.0,110.0,99.0,'11111222,11111222,11144222' 
ADCP,ioos:station:wmo:42361:1,2008-03-31T10:00:00Z,27.5500,-92.4900,122.0,12.0,110.0,99.0,'11111222,11111222,11144222' 
ADCP,ioos:station:wmo:42361:1,2008-03-31T11:00:00Z,27.5500,-92.4900,122.0,11.0,110.0,99.0,'11111222,11111222,11144222' 
ADCP,ioos:station:wmo:42361:1,2008-03-31T12:00:00Z,27.5500,-92.4900,122.0,11.0,120.0,99.0,'11111222,11111222,11144222' 
ADCP,ioos:station:wmo:42361:1,2008-03-31T13:00:00Z,27.5500,-92.4900,122.0,12.0,120.0,99.0,'11111222,11111222,11144222' 
ADCP,ioos:station:wmo:42361:1,2008-03-31T14:00:00Z,27.5500,-92.4900,122.0,13.0,130.0,99.0,'11111222,11111222,11144222' 
ADCP,ioos:station:wmo:42361:1,2008-03-31T15:00:00Z,27.5500,-92.4900,122.0,12.0,130.0,99.0,'11111222,11111222,11144222' 
ADCP,ioos:station:wmo:42361:1,2008-03-31T16:00:00Z,27.5500,-92.4900,122.0,13.0,140.0,99.0,'11111222,11111222,11144222' 
ADCP,ioos:station:wmo:42361:1,2008-03-31T17:00:00Z,27.5500,-92.4900,122.0,12.0,120.0,99.0,'11111222,11111222,11144222' 
ADCP,ioos:station:wmo:42361:1,2008-03-31T18:00:00Z,27.5500,-92.4900,122.0,12.0,110.0,99.0,'11111222,11111222,11144222' 
ADCP,ioos:station:wmo:42361:1,2008-03-31T19:00:00Z,27.5500,-92.4900,122.0,12.0,110.0,99.0,'11111222,11111222,11144222' 
ADCP,ioos:station:wmo:42361:1,2008-03-31T20:00:00Z,27.5500,-92.4900,122.0,13.0,120.0,99.0,'11111222,11111222,11144222' 
ADCP,ioos:station:wmo:42361:1,2008-03-31T21:00:00Z,27.5500,-92.4900,122.0,12.0,130.0,99.0,'11111222,11111222,11144222' 
ADCP,ioos:station:wmo:42361:1,2008-03-31T22:00:00Z,27.5500,-92.4900,122.0,11.0,130.0,99.0,'11111222,11111222,11144222' 
ADCP,ioos:station:wmo:42361:1,2008-03-31T23:00:00Z,27.5500,-92.4900,122.0,11.0,120.0,99.0,'11111222,11111222,11144222' 
 
DISCLAIMER: The Gulf of Mexico Coastal and Ocean Observing (GCOOS) Data Portal aggregates data from the regional data providers for the convenience of all data users. Data published on this website should not be used for navigation or certain other uses as we cannot guarantee data accuracy or availability. The data and delivery services are provided 'as is' without warranty of any kind. Data Source: Gulf of Mexico Coastal Ocean Observing System Data Portal (http://data.gcoos.org/) 
